User: anonymous   Login
Location: Mactaquac Provincial Park
(45.9573°N, 66.8897°W)
Time: 14:52:29
(UTC-03:00)
Language:

Cosmos 1867 - Orbit

View from above orbital plane
View from above orbital plane
View from above satellite
View from above satellite

Ground track
Ground track

The orbit data is extracted from the following two-line orbital elements,

1 18187U 87060A   17116.93822135 -.00000093 +00000-0 +28345-5 0  9995
2 18187 065.0123 012.2303 0015284 259.2802 100.6561 14.31083689556438
Epoch (UTC): 26 April 2017 22:31:02
Eccentricity: 0.0015284
inclination: 65.0123°
perigee height: 777 km
apogee height: 799 km
right ascension of ascending node: 12.2303°
argument of perigee: 259.2802°
revolutions per day: 14.31083689
mean anomaly at epoch: 100.6561°
orbit number at epoch: 55643

The dashed part of the orbit path shows where the satellite is in the earth's shadow,  

DLR